Location: Home
(42.5358°N, 72.7383°W)
Time: 22:22:16
(UTC-05:00)

Vanguard 2 Rocket - Pass Details

Date: 05 December 2021
Orbit: 554 x 3325 km, 32.9° (Epoch: 21 January)

Event Time Altitude Azimuth Distance (km) Brightness Sun altitude
Rises 20:12:32 0° 261° (W) 3,764 10.8 -42.4°
Reaches altitude 10° 20:14:50 10° 254° (WSW) 3,070 10.1 -42.8°
Enters shadow 20:19:24 36° 224° (SW) 2,157 8.8 -43.7°
Maximum altitude 20:22:13 45° 185° (S) 2,151 - -44.2°
Drops below altitude 10° 20:34:53 10° 119° (ESE) 5,173 - -46.5°
Sets 20:40:03 0° 114° (ESE) 6,584 - -47.4°
